Change the Weather History Date:

Thursday, August 22, 2013

  Actual Average Record
Temperature  
Mean Temperature 66 °F 68 °F  
Max Temperature 81 °F 80 °F 99 °F (1969)
Min Temperature 50 °F 55 °F 33 °F (1923)
Cooling Degree Days 1 4  
Month to date cooling degree days 76 121  
Year to date cooling degree days 273 379  
Since 1 June cooling degree days 263 363  
Growing Degree Days 16 (Base 50)    
Moisture  
Dew Point 44 °F    
Average Humidity 53    
Maximum Humidity 83    
Minimum Humidity 23    
Precipitation  
Precipitation 0.00 in 0.06 in 0.46 in (1983)
Month to date precipitation 1.34 1.46  
Year to date precipitation 18.75 12.86  
Sea Level Pressure  
Sea Level Pressure 30.16 in    
Wind  
Wind Speed 6 mph (ESE)    
Max Wind Speed 12 mph    
Max Gust Speed 18 mph    
Visibility 10 miles    
Events      
T = Trace of Precipitation, MM = Missing Value Source: NWS Daily Summary

Daily Weather History Graph

Daily Weather History Graph

Search for Another Location

Airport or City:

Trip Planner

Search our weather history database for the weather conditions in past years. The results will help you decide how hot, cold, wet, or windy it might be!

Date:

Astronomy

Aug. 22, 2013 Rise Set
Actual Time 6:49 AM CDT 8:45 PM CDT
Civil Twilight 6:15 AM CDT 9:18 PM CDT
Nautical Twilight 5:34 AM CDT 9:59 PM CDT
Astronomical Twilight 4:48 AM CDT 10:45 PM CDT
Moon 9:14 PM CDT (8/22) 8:53 AM CDT (8/22)
Length of Visible Light 15h 02m
Length of Day
13h 56m
Waning Gibbous, 96% of the Moon is Illuminated
Aug 22
Waning Gibbous
Aug 28
Last Quarter
Sep 5
New
Sep 12
First Quarter
Sep 19
Full

Hourly Weather History & Observations

Time (CDT) Temp. Dew Point Humidity Pressure Visibility Wind Dir Wind Speed Gust Speed Precip Events Conditions
12:54 AM 54.0 °F 45.0 °F 72% 30.17 in 10.0 mi NNW 8.1 mph - N/A   Clear
1:54 AM 53.1 °F 44.1 °F 71% 30.17 in 10.0 mi NNW 4.6 mph - N/A   Clear
2:54 AM 51.1 °F 44.1 °F 77% 30.19 in 10.0 mi NNW 6.9 mph - N/A   Clear
3:54 AM 53.1 °F 46.0 °F 77% 30.20 in 10.0 mi SW 5.8 mph - N/A   Mostly Cloudy
4:54 AM 53.1 °F 46.0 °F 77% 30.21 in 10.0 mi SW 6.9 mph - N/A   Mostly Cloudy
5:54 AM 53.1 °F 45.0 °F 74% 30.21 in 10.0 mi Calm Calm - N/A   Scattered Clouds
6:54 AM 51.1 °F 46.0 °F 83% 30.22 in 10.0 mi Calm Calm - N/A   Partly Cloudy
7:54 AM 55.0 °F 48.0 °F 77% 30.22 in 10.0 mi Calm Calm - N/A   Clear
8:54 AM 63.0 °F 48.0 °F 58% 30.22 in 10.0 mi SSE 4.6 mph - N/A   Scattered Clouds
9:54 AM 69.1 °F 46.0 °F 44% 30.22 in 10.0 mi SSE 6.9 mph - N/A   Partly Cloudy
10:54 AM 73.0 °F 37.9 °F 28% 30.22 in 10.0 mi SE 6.9 mph - N/A   Clear
11:54 AM 75.9 °F 37.0 °F 24% 30.21 in 10.0 mi SSE 5.8 mph - N/A   Clear
12:54 PM 77.0 °F 39.0 °F 25% 30.20 in 10.0 mi ESE 3.5 mph - N/A   Clear
1:54 PM 78.1 °F 37.0 °F 23% 30.18 in 10.0 mi ESE 5.8 mph - N/A   Clear
2:54 PM 80.1 °F 39.0 °F 23% 30.17 in 10.0 mi Variable 6.9 mph - N/A   Clear
3:54 PM 79.0 °F 39.0 °F 24% 30.14 in 10.0 mi SE 5.8 mph - N/A   Clear
4:54 PM 78.1 °F 39.9 °F 25% 30.12 in 10.0 mi East 5.8 mph - N/A   Clear
5:54 PM 79.0 °F 44.1 °F 29% 30.10 in 10.0 mi ENE 9.2 mph - N/A   Clear
6:54 PM 78.1 °F 45.0 °F 31% 30.08 in 10.0 mi East 9.2 mph - N/A   Clear
7:54 PM 72.0 °F 48.9 °F 44% 30.07 in 10.0 mi East 6.9 mph - N/A   Clear
8:54 PM 66.0 °F 48.9 °F 54% 30.06 in 10.0 mi ENE 5.8 mph - N/A   Clear
9:54 PM 63.0 °F 48.9 °F 60% 30.07 in 10.0 mi ESE 5.8 mph - N/A   Clear
10:54 PM 63.0 °F 50.0 °F 63% 30.06 in 10.0 mi ESE 8.1 mph - N/A   Clear
11:54 PM 60.1 °F 50.0 °F 69% 30.05 in 10.0 mi ESE 6.9 mph - N/A   Clear